Szeged, Hungary

8:13 AM CET on March 24, 2017 (GMT +0100)
Szeged

Weather History for LHUD - August, 2013

Change the Weather History Date:

Monday, August 19, 2013

  Actual Average (LRAR) Record (LRAR)
Temperature  
Mean Temperature 76 °F -  
Max Temperature 94 °F 77 °F 95 °F (2003)
Min Temperature 57 °F 53 °F 54 °F (2012)
Cooling Degree Days 10    
Growing Degree Days 26 (Base 50)    
Moisture  
Dew Point 54 °F    
Average Humidity 43    
Maximum Humidity 77    
Minimum Humidity 19    
Precipitation  
Precipitation 0.00 in 0.06 in - ()
Sea Level Pressure  
Sea Level Pressure 29.98 in    
Wind  
Wind Speed 3 mph ()    
Max Wind Speed 9 mph    
Max Gust Speed -    
Visibility 16.5 miles    
Events      
Averages and records for this station are not official NWS values.
T = Trace of Precipitation, MM = Missing Value Source: Averaged Metar Reports

Daily Weather History Graph

Daily Weather History Graph

Search for Another Location

Airport or City:

Trip Planner

Search our weather history database for the weather conditions in past years. The results will help you decide how hot, cold, wet, or windy it might be!

Date:

Astronomy

Aug. 19, 2013 Rise Set
Actual Time 5:43 AM CEST 7:41 PM CEST
Civil Twilight 5:11 AM CEST 8:14 PM CEST
Nautical Twilight 4:31 AM CEST 8:53 PM CEST
Astronomical Twilight 3:47 AM CEST 9:37 PM CEST
Moon 6:20 PM CEST (8/19) 3:38 AM CEST (8/19)
Length of Visible Light 15h 03m
Length of Day
13h 58m
Waxing Gibbous, 96% of the Moon is Illuminated
Aug 19
Waxing Gibbous
Aug 21
Full
Aug 28
Last Quarter
Sep 5
New
Sep 12
First Quarter

Hourly Weather History & Observations

Time (CEST) Temp. Heat Index Dew Point Humidity Pressure Visibility Wind Dir Wind Speed Gust Speed Precip Events Conditions
12:45 AM 66.2 °F - 51.8 °F 60% 30.04 in - NNE 5.8 mph - N/A   Clear
1:45 AM 62.6 °F - 51.8 °F 68% 30.01 in - NE 1.2 mph - N/A   Clear
2:00 AM 62 °F - 52 °F 62% 30.01 in 19 mi NE 2.2 mph - -   Partly Cloudy
2:45 AM 60.8 °F - 51.8 °F 72% 30.01 in - Calm Calm - N/A   Clear
3:45 AM 59.0 °F - 51.8 °F 77% 30.01 in - Calm Calm - N/A   Clear
4:45 AM 59.0 °F - 51.8 °F 77% 30.01 in - NE 2.3 mph - N/A   Clear
5:45 AM 59.0 °F - 51.8 °F 77% 30.01 in - Calm Calm - N/A   Clear
6:15 AM 59.0 °F - 51.8 °F 77% 30.01 in - Calm Calm - N/A   Clear
6:45 AM 60.8 °F - 53.6 °F 77% 30.04 in - Calm Calm - N/A   Clear
7:15 AM 68.0 °F - 57.2 °F 68% 30.04 in - East 2.3 mph - N/A   Clear
7:45 AM 73.4 °F - 55.4 °F 53% 30.04 in - ESE 3.5 mph - N/A   Clear
8:00 AM 72 °F - 56 °F 47% 30.02 in 16 mi ESE 2.2 mph - -   Partly Cloudy
8:15 AM 75.2 °F - 57.2 °F 53% 30.04 in - SE 3.5 mph - N/A   Clear
8:45 AM 77.0 °F - 57.2 °F 50% 30.04 in - ESE 4.6 mph - N/A   Clear
9:15 AM 78.8 °F - 57.2 °F 47% 30.04 in - SE 4.6 mph - N/A   Clear
9:45 AM 82.4 °F 82.0 °F 57.2 °F 42% 30.04 in - ESE 4.6 mph - N/A   Clear
10:15 AM 84.2 °F 83.0 °F 55.4 °F 37% 30.04 in - ESE 3.5 mph - N/A   Clear
10:45 AM 86.0 °F 84.9 °F 57.2 °F 37% 30.04 in - SE 5.8 mph - N/A   Clear
11:15 AM 87.8 °F 86.1 °F 55.4 °F 33% 30.04 in - East 6.9 mph - N/A   Clear
11:45 AM 89.6 °F 87.7 °F 55.4 °F 31% 30.01 in - East 6.9 mph - N/A   Clear
12:15 PM 89.6 °F 87.7 °F 55.4 °F 31% 30.01 in - East 9.2 mph - N/A   Clear
12:45 PM 91.4 °F 89.4 °F 55.4 °F 29% 30.01 in - East 6.9 mph - N/A   Clear
1:15 PM 91.4 °F 89.1 °F 53.6 °F 28% 29.98 in - SE 6.9 mph - N/A   Clear
1:45 PM 93.2 °F 91.3 °F 55.4 °F 28% 29.98 in - SE 4.6 mph - N/A   Clear
2:00 PM 92 °F - 55 °F 19% 29.96 in 19 mi SE 4.5 mph - -   Partly Cloudy
2:15 PM 93.2 °F 90.8 °F 53.6 °F 26% 29.98 in - SE 4.6 mph - N/A   Clear
2:45 PM 93.2 °F 90.8 °F 53.6 °F 26% 29.95 in - South 3.5 mph - N/A   Clear
3:15 PM 93.2 °F - 51.8 °F 24% 29.95 in - ESE 4.6 mph - N/A   Clear
3:45 PM 93.2 °F 90.8 °F 53.6 °F 26% 29.95 in - South 4.6 mph - N/A   Clear
4:15 PM 93.2 °F - 51.8 °F 24% 29.95 in - SE 4.6 mph - N/A   Clear
4:45 PM 93.2 °F - 51.8 °F 24% 29.92 in - ESE 2.3 mph - N/A   Clear
5:15 PM 93.2 °F - 51.8 °F 24% 29.92 in - North 3.5 mph - N/A   Clear
5:45 PM 93.2 °F 90.8 °F 53.6 °F 26% 29.92 in - East 3.5 mph - N/A   Clear
6:15 PM 91.4 °F - 51.8 °F 26% 29.92 in - ENE 4.6 mph - N/A   Clear
6:45 PM 89.6 °F - 51.8 °F 27% 29.92 in - East 3.5 mph - N/A   Clear
7:15 PM 86.0 °F 84.2 °F 53.6 °F 33% 29.92 in - East 3.5 mph - N/A   Clear
7:45 PM 78.8 °F - 53.6 °F 42% 29.92 in - East 3.5 mph - N/A   Clear
8:00 PM 79 °F - 54 °F 32% 29.90 in 12 mi East 2.2 mph - -   Partly Cloudy
8:15 PM 75.2 °F - 53.6 °F 47% 29.92 in - East 4.6 mph - N/A   Clear
8:45 PM 77.0 °F - 51.8 °F 41% 29.92 in - East 5.8 mph - N/A   Clear
9:15 PM 75.2 °F - 51.8 °F 44% 29.92 in - East 5.8 mph - N/A   Clear
9:45 PM 73.4 °F - 53.6 °F 50% 29.92 in - NE 6.9 mph - N/A   Clear
10:45 PM 78.8 °F - 50.0 °F 36% 29.92 in - East 6.9 mph - N/A   Clear
11:45 PM 78.8 °F - 48.2 °F 34% 29.95 in - East 6.9 mph - N/A   Clear